Home > Weather > Tucson > Past weeks

Flag for USA Past Weather in Tucson, Arizona, USA — Yesterday and Last 2 Weeks

Now
82 °F

Sunny.


Feels Like: 85 °F
Forecast: 78 / 105 °F
Wind: 5 mph from Southwest

Location: Davis-Monthan Air Force Base

Current Time: Jul 29, 2016 at 9:00:11 AM

Latest Report: Jul 29, 2016 at 7:58 AM


Visibility: 10 mi

Pressure: 29.83 "Hg (27.37 "Hg at 758m altitude)

Humidity: 63%

Dew Point: 68 °F

Location of TucsonLocation

Past Weather in Tucson — Graph

°F

Tucson Temperature Yesterday

Maximum temperature yesterday: 101 °F (at 5:58 PM)
Minimum temperature yesterday: 73 °F (at 1:58 AM)
Average temperature yesterday: 87 °F

High & Low Weather Summary for the Past Weeks

 TemperatureHumidityPressure
High104 °F (Jul 21, 3:58 PM)83% (Jul 28, 1:58 AM)30.10 "Hg (Jul 28, 1:58 AM)
Low73 °F (Jul 28, 1:58 AM)14% (Jul 22, 5:58 PM)29.69 "Hg (Jul 26, 4:58 PM)
Average89 °F38%29.85 "Hg
* Reported Jul 14 6:58 AM — Jul 29 6:58 AM, Tucson, Weather by CustomWeather, © 2016

Note: Actual official high and low records may vary slightly from our data, if they occured in-between our weather recording intervals... More about our weather records

Advertising

Tucson Weather History for the Previous 24 Hours

Scroll right to see more
 ConditionsComfort  
Time TempWeatherWind HumidityBarometerVisibility
6:58 AM
Fri, Jul 29
80 °FSunny.7 mph67%29.82 "Hg10 mi
5:58 AM80 °FSunny.8 mph67%29.80 "Hg10 mi
4:58 AM81 °FClear.6 mph59%29.79 "Hg10 mi
3:58 AM83 °FClear.6 mph55%29.78 "Hg10 mi
2:58 AM85 °FPassing clouds.9 mph53%29.77 "Hg10 mi
1:58 AM86 °FPassing clouds.9 mph50%29.76 "Hg10 mi
12:58 AM86 °FPassing clouds.7 mph51%29.75 "Hg10 mi
11:58 PM
Thu, Jul 28
87 °FClear.6 mph46%29.75 "Hg10 mi
10:58 PM90 °FPassing clouds.6 mph44%29.74 "Hg10 mi
9:58 PM94 °FClear.6 mph32%29.72 "Hg10 mi
8:58 PM95 °FClear.8 mph31%29.71 "Hg10 mi
7:58 PM96 °FClear.7 mph33%29.70 "Hg10 mi
6:58 PM100 °FSunny.7 mph26%29.70 "Hg10 mi
5:58 PM101 °FSunny.6 mph24%29.70 "Hg10 mi
1:58 PM98 °FSunny.3 mph27%29.79 "Hg10 mi
11:58 AM95 °FSunny.7 mph31%29.83 "Hg10 mi
9:58 AM91 °FLight rain. Passing clouds.5 mph41%29.86 "Hg10 mi
Weather by CustomWeather, © 2016

See weather overviewHow to use our weather pages